Location: Byhalia Creek
(34.8270°N, 89.8040°W)
Time: 17:33:19
(UTC+00:00)

Cosmos 1655 Rocket - Pass Details

Date: 22 April 2026
Orbit: 969 x 1006 km, 83.0° (Epoch: 9 May)

Event Time Altitude Azimuth Distance (km) Brightness Sun altitude
Rises 08:45:56 0° 356° (N) 3,670 7.5 -28.3°
Reaches altitude 10° 08:48:28 10° 359° (N) 2,718 6.8 -27.9°
Maximum altitude 08:54:39 69° 83° (E) 1,035 4.2 -27.0°
Enters shadow 08:58:04 28° 159° (SSE) 1,731 5.1 -26.4°
